{"data":{"norad_id":63564,"intl_designator":"2025-075S","name":"STARLINK-32928","alt_names":[],"object_type":"PAYLOAD","status":"ACTIVE","operator":null,"country":"US","launch_date":"2025-04-13","launch_site_code":"AFETR","launch_vehicle":null,"mission":null,"orbit_class":"UNKNOWN","rcs_meters":null,"size_class":null,"mass_kg":null,"dimensions":null,"purposes":["comms"],"wikipedia_slug":null,"has_3d_model":false,"image_url":null,"decayed_at":null,"tle_current":{"epoch":"2026-09-20T00:59:44.082816Z","epoch_age_seconds":195151,"freshness":"STALE","line1":"1 63564U 25075S   26263.04148244  .00010985  00000+0  40806-3 0  9992","line2":"2 63564  43.0015 252.8094 0001286 245.6795 114.3922 15.27583789 81662","mean_motion":15.27583789,"eccentricity":0.0001286,"inclination_deg":43.0015,"raan_deg":252.8094,"arg_perigee_deg":245.6795,"mean_anomaly_deg":114.3922,"bstar":0.00040806,"rev_number":8166,"period_min":94.26651489557,"perigee_km":482.15540336111,"apogee_km":483.92009750693,"semimajor_km":6861.174750434,"source":"CELESTRAK","updated_at":"2026-09-21T09:00:35.022377Z"}}}